Location: Caltech
(34.1382°N, 118.1253°W)
Time: 15:31:26
(UTC-07:00)

Cosmos 2251 Rocket - Visible Passes

Search period start: 28 July 2014 00:00
Search period end: 07 August 2014 00:00
Orbit: 765 x 793 km, 74.0° (Epoch: 27 July)

Date Brightness Start Highest point End Pass type
(mag) Time Alt. Az. Time Alt. Az. Time Alt. Az.
28 Jul 6.1 00:48:55 12° ENE 00:48:55 12° ENE 00:49:25 10° NE visible
28 Jul 4.9 02:29:26 34° NNW 02:29:26 34° NNW 02:32:51 10° N visible
29 Jul 5.0 01:56:27 34° N 01:56:27 34° N 01:59:28 10° NNE visible
30 Jul 5.4 01:23:28 27° NNE 01:23:28 27° NNE 01:25:51 10° NNE visible
30 Jul 5.8 03:03:58 13° NW 03:03:58 13° NW 03:05:51 10° NNW visible
31 Jul 5.8 00:50:27 19° NE 00:50:27 19° NE 00:52:01 10° NNE visible
31 Jul 5.6 02:30:57 19° NW 02:30:57 19° NW 02:33:30 10° NNW visible
01 Aug 6.1 00:17:25 12° NE 00:17:25 12° NE 00:17:51 10° NE visible
01 Aug 5.4 01:57:55 24° NNW 01:57:55 24° NNW 02:00:32 10° N visible
02 Aug 5.5 01:24:51 26° N 01:24:51 26° N 01:27:15 10° N visible
03 Aug 5.6 00:51:46 24° NNE 00:51:46 24° NNE 00:53:46 10° NNE visible
04 Aug 5.8 00:18:39 18° NNE 00:18:39 18° NNE 00:20:04 10° NNE visible
04 Aug 6.0 01:59:09 15° NW 01:59:09 15° NW 02:00:48 10° NNW visible
04 Aug 6.1 23:45:31 13° NE 23:45:31 13° NE 23:46:06 10° NE visible
05 Aug 5.8 01:26:01 19° NNW 01:26:01 19° NNW 01:28:06 10° N visible
06 Aug 5.7 00:52:51 23° N 00:52:51 23° N 00:54:59 10° N visible
